Weather History for Martha's Vineyard, MA

Change the Weather History Date:

Saturday, September 1, 2012

  Actual Average Record
Temperature  
Mean Temperature 72 °F -  
Max Temperature 82 °F 76 °F 91 °F (1953)
Min Temperature 64 °F 58 °F 43 °F (2003)
Cooling Degree Days 8    
Growing Degree Days 22 (Base 50)    
Moisture  
Dew Point 62 °F    
Average Humidity 64    
Maximum Humidity 75    
Minimum Humidity 54    
Precipitation  
Precipitation 0.00 in - - ()
Sea Level Pressure  
Sea Level Pressure 30.00 in    
Wind  
Wind Speed 10 mph (NE)    
Max Wind Speed 17 mph    
Max Gust Speed 22 mph    
Visibility 10 miles    
Events      
Averages and records for this station are not official NWS values.
T = Trace of Precipitation, MM = Missing Value Source: NWS Daily Summary

Daily Weather History Graph

Daily Weather History Graph

Search for Another Location

Airport:

Trip Planner

Search our weather history database for the weather conditions in past years. The results will help you decide how hot, cold, wet, or windy it might be!

Date:

Astronomy

Sep. 01, 2012 Rise Set
Actual Time 6:09 AM EDT 7:14 PM EDT
Civil Twilight 5:40 AM EDT 7:42 PM EDT
Nautical Twilight 5:06 AM EDT 8:16 PM EDT
Astronomical Twilight 4:31 AM EDT 8:52 PM EDT
Moon 7:27 PM EDT 7:14 AM EDT
Length of Visible Light 14h 02m
Length of Day
13h 05m
Full, 99% of the Moon is Illuminated
Sep 1
Full
Sep 8
Last Quarter
Sep 15
New
Sep 22
First Quarter
Sep 29
Full

Hourly Weather History & Observations

Time (EDT) Temp. Heat Index Dew Point Humidity Pressure Visibility Wind Dir Wind Speed Gust Speed Precip Events Conditions
12:53 AM 78.1 °F - 64.9 °F 64% 29.86 in 10.0 mi West 11.5 mph 18.4 mph N/A   Clear
2:53 AM 79.0 °F - 63.0 °F 58% 29.85 in 10.0 mi WNW 10.4 mph 18.4 mph N/A   Clear
3:53 AM 77.0 °F - 64.0 °F 64% 29.87 in 10.0 mi NW 5.8 mph - N/A   Clear
4:53 AM 75.0 °F - 64.0 °F 69% 29.87 in 10.0 mi NW 8.1 mph - N/A   Clear
5:53 AM 75.9 °F - 64.0 °F 67% 29.90 in 10.0 mi North 8.1 mph - N/A   Clear
6:53 AM 75.0 °F - 64.0 °F 69% 29.93 in 10.0 mi NNE 4.6 mph - N/A   Clear
7:53 AM 75.9 °F - 66.0 °F 71% 29.94 in 10.0 mi NE 5.8 mph - N/A   Clear
8:53 AM 78.1 °F - 66.0 °F 66% 29.97 in 10.0 mi NE 11.5 mph - N/A   Mostly Cloudy
9:53 AM 79.0 °F - 66.9 °F 66% 29.99 in 10.0 mi NE 11.5 mph 18.4 mph N/A   Partly Cloudy
10:53 AM 81.0 °F 83.0 °F 66.0 °F 60% 30.00 in 10.0 mi NE 11.5 mph - N/A   Clear
11:53 AM 80.1 °F 82.3 °F 66.9 °F 64% 30.01 in 10.0 mi NE 15.0 mph 18.4 mph N/A   Partly Cloudy
12:53 PM 80.1 °F 81.9 °F 64.9 °F 60% 30.02 in 10.0 mi East 16.1 mph 21.9 mph N/A   Partly Cloudy
1:53 PM 80.1 °F 81.5 °F 63.0 °F 56% 30.03 in 10.0 mi ENE 16.1 mph - N/A   Clear
2:53 PM 79.0 °F - 64.9 °F 62% 30.03 in 10.0 mi East 11.5 mph 19.6 mph N/A   Clear
3:53 PM 77.0 °F - 59.0 °F 54% 30.04 in 10.0 mi East 16.1 mph 21.9 mph N/A   Clear
4:53 PM 75.0 °F - 57.9 °F 55% 30.03 in 10.0 mi ENE 17.3 mph - N/A   Clear
5:53 PM 73.0 °F - 55.9 °F 55% 30.05 in 10.0 mi East 15.0 mph - N/A   Clear
6:53 PM 70.0 °F - 54.0 °F 57% 30.05 in 10.0 mi ENE 9.2 mph - N/A   Clear
7:53 PM 66.9 °F - 54.0 °F 63% 30.07 in 10.0 mi ENE 3.5 mph - N/A   Clear
8:53 PM 66.9 °F - 55.0 °F 66% 30.09 in 10.0 mi East 6.9 mph - N/A   Partly Cloudy
9:53 PM 64.9 °F - 55.9 °F 73% 30.10 in 10.0 mi NE 3.5 mph - N/A   Mostly Cloudy
10:53 PM 64.9 °F - 57.0 °F 75% 30.09 in 10.0 mi East 6.9 mph - N/A   Mostly Cloudy
11:53 PM 66.9 °F - 57.9 °F 73% 30.10 in 10.0 mi East 3.5 mph - N/A   Mostly Cloudy